User: anonymous
Location: Unspecified
(0.0000°N, 0.0000°E)
Time: 23:11:27
(UTC+02:00)
Language:

Cosmos 1263 Rocket - Orbit

View from above orbital plane
View from above orbital plane
View from above satellite
View from above satellite

Ground track
Ground track

The orbit data is extracted from the following two-line orbital elements,

1 12389U 81033B   14245.01068884  .00048057  00000-0  67887-3 0   623
2 12389 082.8730 033.3463 0197790 197.3741 261.0377 15.36796373721512
Epoch (UTC): 02 September 2014 00:15:23
Eccentricity: 0.0197790
inclination: 82.8730°
perigee height: 320 km
apogee height: 591 km
right ascension of ascending node: 33.3463°
argument of perigee: 197.3741°
revolutions per day: 15.36796373
mean anomaly at epoch: 261.0377°
orbit number at epoch: 72151

The dashed part of the orbit path shows where the satellite is in the earth's shadow,  

DLR